DW7040 Weather Reports


Display with metric or nautical units.
time (UTC)temp
F
wind
direction
speed
MPH
gust
MPH
rain 1hr
in
rain 24hr
in
rain mn
in
humidity
%
barometer
mb
20260904211507 0 242 0.0 0.0 0.00 0.00 0.00 1007.3
20260904210058 0 242 0.0 0.0 0.00 0.00 0.00 1007.2
20260904204554 0 240 0.0 0.0 0.00 0.00 0.00 1007.1
20260904203048 0 259 0.0 0.0 0.00 0.00 0.00 1007.0
20260904201510 0 255 0.0 0.0 0.00 0.00 0.00 1006.9
20260904200024 0 262 0.0 0.0 0.00 0.00 0.00 1006.8
20260904194504 0 264 0.0 0.0 0.00 0.00 0.00 1006.7
20260904193024 0 265 0.0 0.0 0.00 0.00 0.00 1006.5
20260904191503 0 267 0.0 0.0 0.00 0.00 0.00 1006.2
20260904190057 0 267 0.0 0.0 0.00 0.00 0.00 1006.0
20260904184551 0 268 0.0 0.0 0.00 0.00 0.00 1005.8
20260904183042 0 268 0.0 0.0 0.00 0.00 0.00 1005.8
20260904181548 0 268 0.0 0.0 0.00 0.00 0.00 1005.7
20260904180045 0 270 0.0 0.0 0.00 0.00 0.00 1005.5
20260904174612 0 265 0.0 0.0 0.00 0.00 0.00 1005.6
20260904173046 0 266 0.0 0.0 0.00 0.00 0.00 1005.4
20260904171535 0 266 0.0 0.0 0.00 0.00 0.00 1005.3
20260904170042 0 266 0.0 0.0 0.00 0.00 0.00 1005.1
20260904164522 0 266 0.0 0.0 0.00 0.00 0.00 1005.0
20260904163017 0 267 0.0 0.0 0.00 0.00 0.00 1004.7
20260904161517 0 269 0.0 0.0 0.00 0.00 0.00 1004.7
20260904160008 0 269 0.0 0.0 0.00 0.00 0.00 1004.7
20260904154546 0 269 0.0 0.0 0.00 0.00 0.00 1004.6
20260904153042 0 271 0.0 0.0 0.00 0.00 0.00 1004.4
20260904151526 0 271 0.0 0.0 0.00 0.00 0.00 1004.5
20260904150029 0 271 0.0 0.0 0.00 0.00 0.00 1004.5
20260904144517 0 272 0.0 0.0 0.00 0.00 0.00 1004.2
20260904143052 0 272 0.0 0.0 0.00 0.00 0.00 1004.3
20260904141550 0 274 0.0 0.0 0.00 0.00 0.00 1004.3
20260904140043 0 276 0.0 0.0 0.00 0.00 0.00 1004.2
20260904134538 0 279 0.0 0.0 0.00 0.00 0.00 1004.1
20260904133033 0 261 0.0 0.0 0.00 0.00 0.00 1003.9
20260904131534 0 264 0.0 0.0 0.00 0.00 0.00 1003.6
20260904130019 0 266 0.0 0.0 0.00 0.00 0.00 1003.5
20260904124516 0 268 0.0 0.0 0.00 0.00 0.00 1003.3
20260904123026 0 272 0.0 0.0 0.00 0.00 0.00 1003.4
20260904121520 0 275 0.0 0.0 0.00 0.00 0.00 1003.2
20260904120027 0 278 0.0 0.0 0.00 0.00 0.00 1003.1
20260904114529 0 280 0.0 0.0 0.00 0.00 0.00 1002.8
20260904113044 0 280 0.0 0.0 0.00 0.00 0.00 1002.8
20260904111534 0 281 0.0 0.0 0.00 0.00 0.00 1002.5
20260904110028 0 281 0.0 0.0 0.00 0.00 0.00 1002.5
20260904104527 0 283 0.0 0.0 0.00 0.00 0.00 1002.0
20260904103013 0 268 0.0 0.0 0.00 0.00 0.00 1002.2
20260904101543 0 248 0.0 0.0 0.00 0.00 0.00 1001.9
20260904100047 0 240 0.0 0.0 0.00 0.00 0.00 1001.6
20260904094516 0 237 0.0 0.0 0.00 0.00 0.00 1001.6
20260904093044 0 241 0.0 0.0 0.00 0.00 0.00 1001.5
20260904091509 0 242 0.0 0.0 0.00 0.00 0.00 1001.4
20260904090037 0 238 0.0 0.0 0.00 0.00 0.00 1001.1
20260904084543 0 239 0.0 0.0 0.00 0.00 0.00 1001.0
20260904083027 0 238 0.0 0.0 0.00 0.00 0.00 1001.0
20260904081546 0 238 0.0 0.0 0.00 0.00 0.00 1000.9
20260904081509 0 237 0.0 0.0 0.00 0.00 0.00 1000.9
20260904080020 0 238 0.0 0.0 0.00 0.00 0.00 1000.8
20260904073052 0 237 0.0 0.0 0.00 0.00 0.00 1000.6
20260904071543 0 238 0.0 0.0 0.00 0.00 0.00 1000.5
20260904070041 0 238 0.0 0.0 0.00 0.00 0.00 1000.3
20260904064528 0 238 0.0 0.0 0.00 0.00 0.00 999.9
20260904063039 0 0.0 0.0 0.00 0.00 0.00 999.9
20260904061526 0 0.0 0.0 0.00 0.00 0.00 999.5
20260904060020 0 0.0 0.0 0.00 0.00 0.00 999.5
20260904053138 0 0.0 0.0 0.00 0.00 0.00 998.8
20260904051558 0 0.0 0.0 0.00 0.00 0.00 999.0
20260904044549 0 0.0 0.0 0.00 0.00 0.00 999.0
20260904043020 0 0.0 0.0 0.00 0.00 0.00 998.7
20260904041604 0 0.0 0.0 0.00 0.00 0.00 998.9
20260904040002 0 0.0 0.0 0.00 0.00 0.00 999.0
20260904030049 0 0.0 0.0 0.00 0.00 0.00 998.7
20260904014615 0 0.0 0.0 0.00 0.00 0.00 998.2
20260904010018 0 0.0 0.0 0.00 0.00 0.00 997.8
20260904001552 0 235 0.0 0.0 0.00 0.00 0.00 998.1
20260903233005 0 235 0.0 0.0 0.00 0.00 0.00 998.4
20260903231515 0 235 0.0 0.0 0.00 0.00 0.00 998.7
20260903230020 0 234 0.0 0.0 0.00 0.00 0.00 999.0
20260903224505 0 235 0.0 0.0 0.00 0.00 0.00 999.8
20260903223100 0 243 0.0 0.0 0.00 0.00 0.00 1000.3
20260903221551 0 242 0.0 0.0 0.00 0.00 0.00 1000.3
20260903220006 0 242 0.0 0.0 0.00 0.00 0.00 1000.5
20260903214503 0 240 0.0 0.0 0.00 0.00 0.00 1000.8
20260903213058 0 242 0.0 0.0 0.00 0.00 0.00 1001.1